CZ-2D DEB

Satellite information

Favourite Embed

Satellite Type and Status

DEBRISIN ORBIT

Key statistics

Satellite CZ-2D DEB at a glance.

Uptime

5089

Days in orbit

Revolutions

≈ 14.2

Per day

Orbit

SSO

Sun Synchronous Orbit

Inclination

98.8

Latest

Satellite identification and parameters

Extended collection of information and parameters for CZ-2D DEB.

Object identification

Identified? True

Debris? True

Object name: CZ-2D DEB

International designator: 2011-068G

Object number (NORAD): 38179

Object ID (CCSDS): 38179

Country: PEOPLES REPUBLIC OF CHINA (PRC)

Current information (Y/N): Y

RCS size: SMALL

Orbital parameters

Period: 101.223 minutes

Inclination: 98.8495 deg

SMA: 7194.692 km

Apoapsis: 909.439 km

Periapsis: 723.675 km

RAAN: 315.8904 deg

Eccentricy: 0.0129098

Argument of periapsis: 52.9051 deg

Mean anomaly: 322.617 deg

Mean motion: 14.226054 rev/day

Mean motion (dot): 0.00001547 rev/day2

B* drag term: 0.00065372 1/REarth

Two-line elements (TLE)

Creation date: Oct. 25, 2025, 2:36 p.m.

Reference frame: TEME

Reference center: EARTH

Epoch: Oct. 25, 2025, 7:53 a.m. UTC

TLE line 0: 0 CZ-2D DEB

TLE line 1: 1 38179U 11068G 25298.32866860 .00001547 00000-0 65372-3 0 9992

TLE line 2: 2 38179 98.8495 315.8904 0129098 52.9051 322.6170 14.22605400719590

Live tracking on map

Real-time ground track for satellite CZ-2D DEB.

In-orbit conjunctions

A list of the most updated potential collisions computed for object CZ-2D DEB.

Target Orbit TCA Probability of collision Miss distance Type
FENGYUN 1C DEB SSO 2025-10-27 13:28:54 0.0001431399 445.0 (m) DEBRIS
FENGYUN 1C DEB SSO 2025-09-01 08:47:59 0.000156603 230.0 (m) DEBRIS

Associated space launch

CZ-2D DEB was lifted into orbit during the mission ‘Long March 2D | Shiyan Weixing 4 & Chuang Xin 1C’, on board a Long March 2D space rocket.

The launch took place on Nov. 20, 2011, 12:15 a.m. from Launch Area 4 (SLS-2 / 603).

For more information about the launch, click the button.

Launch to space Long March 2D | Shiyan Weixing 4 & Chuang Xin 1C
Long March 2D | Shiyan Weixing 4 & Chuang Xin 1C

Agency: N/A

Status: Launch Successful

Launch date: Nov. 20, 2011, 12:15 a.m. UTC

Rocket: Long March 2D

Launch pad: Launch Area 4 (SLS-2 / 603)

Location: Jiuquan Satellite Launch Center, People's Republic of China

...

Latest news about this satellite

There are no fresh news available about this satellite. Check back as we update our databases every day.


Newsletter sign-up

Weekly statistics, charts and insights to help you stay on top of the space industry.